When you browse on this site, cookies collect data to enhance your experience and personalize the content and advertising you see.
Visit our Privacy Policy to learn more. By continuing to use the site, you agree to this use of cookies and data.
  • In Lithuania
  • List of Countries
  • For 7 days
  • Water Temperature
  • Satellite Maps
  • Weather Map
  • Weather Widgets
  • user-avatar
    Login

    Hourly Weather Ordino

    Today, 21 May, Tuesday

    Time Temperature Precipitation Wind Pressure Humidity
    00:00 +5°C° 0 mm 1 mps 630 mmHg 96%
    01:00 +5°C° 0 mm 1 mps 630 mmHg 96%
    02:00 +4°C° 0 mm 1 mps 630 mmHg 96%
    03:00 +4°C° 0 mm 1 mps 630 mmHg 96%
    04:00 +5°C° 0 mm 1 mps 630 mmHg 94%
    05:00 +5°C° 0 mm 1 mps 631 mmHg 92%
    06:00 +6°C° 0 mm 1 mps 631 mmHg 89%
    07:00 +8°C° 0 mm 1 mps 632 mmHg 79%
    08:00 +10°C° 0 mm 1 mps 632 mmHg 70%
    09:00 +12°C° 0 mm 1 mps 633 mmHg 60%
    10:00 +12°C° 0.1 mm 1 mps 633 mmHg 59%
    11:00 +13°C° 0.1 mm 1 mps 633 mmHg 58%
    12:00 +13°C° 0.1 mm 2 mps 633 mmHg 57%
    13:00 +13°C° 0.4 mm 1 mps 633 mmHg 60%
    14:00 +13°C° 0.4 mm 1 mps 633 mmHg 63%
    15:00 +12°C° 0.4 mm 1 mps 632 mmHg 66%
    16:00 +11°C° 0.6 mm 1 mps 632 mmHg 72%
    17:00 +10°C° 0.6 mm 1 mps 632 mmHg 78%
    18:00 +9°C° 0.6 mm 1 mps 631 mmHg 84%
    19:00 +8°C° 0.1 mm 1 mps 632 mmHg 87%
    20:00 +8°C° 0.1 mm 1 mps 632 mmHg 89%
    21:00 +7°C° 0.1 mm 1 mps 632 mmHg 92%
    22:00 +6°C° 0 mm 1 mps 632 mmHg 93%
    23:00 +6°C° 0 mm 1 mps 632 mmHg 94%

    Tomorrow, 22 May, Wednesday

    Time Temperature Precipitation Wind Pressure Humidity
    00:00 +5°C° 0 mm 1 mps 632 mmHg 94%
    01:00 +5°C° 0 mm 1 mps 632 mmHg 94%
    02:00 +5°C° 0 mm 1 mps 631 mmHg 94%
    03:00 +5°C° 0 mm 1 mps 631 mmHg 93%
    04:00 +5°C° 0 mm 1 mps 632 mmHg 90%
    05:00 +6°C° 0 mm 1 mps 632 mmHg 88%
    06:00 +7°C° 0 mm 1 mps 633 mmHg 85%
    07:00 +10°C° 0 mm 1 mps 634 mmHg 74%
    08:00 +12°C° 0 mm 1 mps 635 mmHg 63%
    09:00 +14°C° 0 mm 1 mps 636 mmHg 52%
    10:00 +15°C° 0 mm 1 mps 636 mmHg 49%
    11:00 +16°C° 0 mm 1 mps 636 mmHg 46%
    12:00 +18°C° 0 mm 1 mps 636 mmHg 44%
    13:00 +16°C° 0.3 mm 1 mps 635 mmHg 49%
    14:00 +15°C° 0.3 mm 1 mps 635 mmHg 55%
    15:00 +14°C° 0.3 mm 1 mps 634 mmHg 61%
    16:00 +13°C° 0.2 mm 1 mps 634 mmHg 65%
    17:00 +13°C° 0.2 mm 1 mps 634 mmHg 69%
    18:00 +12°C° 0.2 mm 1 mps 634 mmHg 73%
    19:00 +11°C° 0.1 mm 1 mps 633 mmHg 78%
    20:00 +9°C° 0.1 mm 1 mps 633 mmHg 83%
    21:00 +8°C° 0.1 mm 1 mps 633 mmHg 89%
    22:00 +7°C° 0 mm 1 mps 633 mmHg 88%
    23:00 +7°C° 0 mm 1 mps 633 mmHg 88%

    Day after tomorrow, 23 May, Thursday

    Time Temperature Precipitation Wind Pressure Humidity
    00:00 +7°C° 0 mm 1 mps 632 mmHg 88%
    01:00 +6°C° 0 mm 1 mps 632 mmHg 86%
    02:00 +6°C° 0 mm 1 mps 632 mmHg 84%
    03:00 +6°C° 0 mm 1 mps 632 mmHg 82%
    04:00 +7°C° 0 mm 1 mps 632 mmHg 79%
    05:00 +8°C° 0 mm 1 mps 633 mmHg 76%
    06:00 +10°C° 0 mm 1 mps 633 mmHg 73%
    07:00 +12°C° 0 mm 1 mps 634 mmHg 65%
    08:00 +14°C° 0 mm 1 mps 635 mmHg 56%
    09:00 +18°C° 0 mm 1 mps 636 mmHg 48%
    10:00 +19°C° 0 mm 1 mps 636 mmHg 46%
    11:00 +20°C° 0 mm 1 mps 637 mmHg 43%
    12:00 +21°C° 0 mm 1 mps 637 mmHg 40%
    13:00 +19°C° 0.3 mm 1 mps 636 mmHg 50%
    14:00 +16°C° 0.3 mm 1 mps 635 mmHg 60%
    15:00 +14°C° 0.3 mm 1 mps 634 mmHg 70%
    16:00 +13°C° 1.2 mm 1 mps 633 mmHg 77%
    17:00 +12°C° 1.2 mm 1 mps 633 mmHg 83%
    18:00 +11°C° 1.2 mm 1 mps 633 mmHg 90%
    19:00 +11°C° 1.5 mm 1 mps 633 mmHg 91%
    20:00 +10°C° 1.5 mm 1 mps 633 mmHg 92%
    21:00 +10°C° 1.5 mm 1 mps 633 mmHg 94%
    22:00 +10°C° 0.7 mm 1 mps 633 mmHg 94%
    23:00 +9°C° 0.7 mm 1 mps 633 mmHg 94%

    24 May, Friday

    Time Temperature Precipitation Wind Pressure Humidity
    00:00 +9°C° 0.7 mm 1 mps 633 mmHg 94%
    01:00 +9°C° 0.2 mm 1 mps 632 mmHg 95%
    02:00 +8°C° 0.2 mm 1 mps 632 mmHg 95%
    03:00 +8°C° 0.2 mm 1 mps 632 mmHg 96%
    04:00 +8°C° 0.4 mm 1 mps 632 mmHg 95%
    05:00 +9°C° 0.4 mm 1 mps 632 mmHg 94%
    06:00 +9°C° 0.4 mm 1 mps 632 mmHg 94%
    07:00 +9°C° 1.5 mm 1 mps 632 mmHg 94%
    08:00 +9°C° 1.5 mm 1 mps 632 mmHg 94%
    09:00 +9°C° 1.5 mm 1 mps 633 mmHg 94%
    10:00 +9°C° 1.9 mm 1 mps 632 mmHg 95%
    11:00 +9°C° 1.9 mm 1 mps 632 mmHg 95%
    12:00 +9°C° 1.9 mm 1 mps 632 mmHg 96%
    13:00 +8°C° 0.6 mm 2 mps 632 mmHg 94%
    14:00 +9°C° 0.6 mm 2 mps 632 mmHg 91%
    15:00 +9°C° 0.6 mm 2 mps 632 mmHg 89%
    16:00 +9°C° 0.3 mm 2 mps 632 mmHg 90%
    17:00 +9°C° 0.3 mm 2 mps 632 mmHg 90%
    18:00 +9°C° 0.3 mm 2 mps 632 mmHg 91%
    19:00 +8°C° 0.1 mm 2 mps 632 mmHg 92%
    20:00 +7°C° 0.1 mm 2 mps 632 mmHg 93%
    21:00 +7°C° 0.1 mm 2 mps 632 mmHg 94%
    22:00 +7°C° 0.1 mm 2 mps 632 mmHg 93%
    23:00 +6°C° 0.1 mm 2 mps 631 mmHg 93%

    25 May, Saturday

    Time Temperature Precipitation Wind Pressure Humidity
    00:00 +6°C° 0.1 mm 2 mps 631 mmHg 93%
    01:00 +6°C° 0.2 mm 2 mps 631 mmHg 93%
    02:00 +6°C° 0.2 mm 2 mps 631 mmHg 94%
    03:00 +6°C° 0.2 mm 2 mps 631 mmHg 94%
    04:00 +6°C° 0.6 mm 2 mps 631 mmHg 94%
    05:00 +7°C° 0.6 mm 2 mps 631 mmHg 94%
    06:00 +7°C° 0.6 mm 2 mps 631 mmHg 94%
    07:00 +7°C° 1.7 mm 2 mps 631 mmHg 94%
    08:00 +7°C° 1.7 mm 2 mps 631 mmHg 94%
    09:00 +7°C° 1.7 mm 2 mps 632 mmHg 94%
    10:00 +7°C° 1.3 mm 2 mps 632 mmHg 93%
    11:00 +8°C° 1.3 mm 2 mps 632 mmHg 91%
    12:00 +8°C° 1.3 mm 2 mps 632 mmHg 90%
    13:00 +8°C° 0.1 mm 2 mps 632 mmHg 87%
    14:00 +9°C° 0.1 mm 3 mps 632 mmHg 83%
    15:00 +10°C° 0.1 mm 3 mps 632 mmHg 80%
    16:00 +10°C° 0 mm 3 mps 632 mmHg 79%
    17:00 +10°C° 0 mm 3 mps 633 mmHg 78%
    18:00 +10°C° 0 mm 3 mps 633 mmHg 78%
    19:00 +9°C° 0 mm 3 mps 633 mmHg 82%
    20:00 +8°C° 0 mm 2 mps 633 mmHg 87%
    21:00 +7°C° 0 mm 2 mps 633 mmHg 91%
    22:00 +7°C° 0.3 mm 2 mps 633 mmHg 91%
    23:00 +7°C° 0.3 mm 2 mps 633 mmHg 92%

    26 May, Sunday

    Time Temperature Precipitation Wind Pressure Humidity
    00:00 +8°C° 0.3 mm 2 mps 633 mmHg 92%
    01:00 +8°C° 0.1 mm 2 mps 633 mmHg 93%
    02:00 +8°C° 0.1 mm 2 mps 633 mmHg 93%
    03:00 +8°C° 0.1 mm 2 mps 633 mmHg 94%
    04:00 +8°C° 0.1 mm 3 mps 633 mmHg 93%
    05:00 +8°C° 0.1 mm 3 mps 633 mmHg 92%
    06:00 +8°C° 0.1 mm 3 mps 633 mmHg 92%
    07:00 +9°C° 0 mm 3 mps 634 mmHg 85%
    08:00 +10°C° 0 mm 3 mps 634 mmHg 79%
    09:00 +10°C° 0 mm 4 mps 634 mmHg 73%
    10:00 +11°C° 0 mm 4 mps 634 mmHg 69%
    11:00 +12°C° 0 mm 4 mps 634 mmHg 64%
    12:00 +13°C° 0 mm 4 mps 634 mmHg 59%
    13:00 +14°C° 0 mm 4 mps 634 mmHg 59%
    14:00 +14°C° 0 mm 4 mps 634 mmHg 58%
    15:00 +14°C° 0 mm 4 mps 634 mmHg 57%
    16:00 +13°C° 0 mm 3 mps 633 mmHg 63%
    17:00 +12°C° 0 mm 3 mps 633 mmHg 69%
    18:00 +11°C° 0 mm 3 mps 633 mmHg 74%
    19:00 +10°C° 0 mm 3 mps 633 mmHg 79%
    20:00 +9°C° 0 mm 2 mps 633 mmHg 84%
    21:00 +8°C° 0 mm 2 mps 633 mmHg 89%
    22:00 +7°C° 0 mm 2 mps 632 mmHg 90%
    23:00 +6°C° 0 mm 2 mps 632 mmHg 91%
    Show more